Location: Bakov nad Jizerou
(50.4784°N, 14.9394°E)
Time: 16:31:47
(UTC+00:00)

Cosmos 2322 - Pass Details

Date: 25 October 2021
Orbit: 841 x 854 km, 71.0° (Epoch: 04 December)

Event Time Altitude Azimuth Distance (km) Brightness Sun altitude
Rises 16:49:48 0° 149° (SSE) 3,411 6.6 -10.4°
Reaches altitude 10° 16:53:30 10° 125° (SE) 2,482 5.7 -10.9°
Enters shadow 16:55:57 14° 99° (E) 2,226 5.3 -11.3°
